[[{"header":{"parameterUnit":"m.s-1","parameterCategory":1,"la1":30.2991,"la2":30.254,"lo1":-89.0895,"lo2":-89.0444,"dy":0.0017,"dx":0.0017,"nx":28,"ny":28,"refTime":"2024-06-16T21:00:00:Z","depth":0,"parameterNumber":2,"parameterNumberName":"U-component_of_WINDS"},"data":[0,0,0,0,0,0,0,0,0,0,0,0,0,0,0,0,0,0,0,0,0,0,0,0,0,0,0,0,0,0,0,0,0,0,0,0,0,0,0,0,0,0,0,0,0,0,0,0,0,0,0,0,0,0,0,0,0,0,-6.6298,-6.6299,0,-6.6352,-6.6352,-6.6353,-6.6211,-6.6206,-6.6202,-6.6198,-6.6249,-6.6255,-6.626,0,0,0,0,0,0,0,0,0,0,0,0,0,-6.6069,-6.6074,-6.6298,-6.6299,-6.6299,-6.6352,-6.6352,-6.6353,-6.6211,-6.6206,-6.6201,-6.6196,-6.6247,-6.6254,-6.626,0,0,0,0,0,0,0,0,0,0,0,0,0,-6.615,-6.6076,-6.6298,-6.6235,-6.623,-6.6351,-6.6352,-6.6353,-6.6212,-6.6206,-6.6199,-6.6193,-6.6245,-6.6253,-6.6261,-6.6445,0,0,-6.6287,-6.629,0,0,0,0,0,0,0,0,-6.6146,-6.6159,-6.6244,-6.624,-6.6234,-6.6268,-6.629,-6.6384,-6.6214,-6.6219,-6.6197,-6.619,-6.6261,-6.6267,-6.6292,-6.6448,-6.645,-6.6287,-6.6292,-6.6296,-6.6298,0,0,0,0,0,0,0,-6.614,-6.6156,-6.6319,-6.6245,-6.6239,-6.6203,-6.6207,-6.6307,-6.6276,-6.6218,-6.6208,-6.6216,-6.6257,-6.6284,-6.6292,-6.6451,-6.6287,-6.6294,-6.6299,-6.6303,-6.6757,-6.6764,0,0,0,0,0,0,-6.6143,-6.6152,-6.6317,-6.6321,-6.6173,-6.6213,-6.6217,-6.6264,-6.6275,-6.627,-6.6222,-6.621,-6.6273,-6.6282,-6.6293,-6.6506,-6.6296,-6.6304,-6.6308,-6.675,-6.6759,-6.6767,0,0,0,0,0,0,-6.6139,-6.616,-6.6315,-6.6234,-6.6251,-6.6224,-6.6277,-6.6268,-6.6295,-6.6278,-6.6271,-6.6256,-6.6268,-6.6281,-6.6408,-6.6506,-6.6307,-6.6315,-6.6742,-6.6753,-6.6763,-6.6935,0,0,0,0,0,0,-6.6133,-6.6159,-6.6229,-6.6236,-6.6256,-6.6431,-6.6283,-6.6274,-6.631,-6.6295,-6.6308,-6.6304,-6.6264,-6.6396,-6.6416,-6.6514,-6.6321,-6.6733,-6.6747,-6.6759,-6.6921,-6.6951,-6.6976,0,0,0,0,0,-6.6126,-6.6275,-6.6233,-6.6254,-6.6343,-6.6437,-6.6447,-6.64,-6.6319,-6.6388,-6.6377,-6.6303,-6.6493,-6.6411,-6.6432,-6.6533,-6.6726,-6.6743,-6.6758,-6.6908,-6.6945,-6.6976,0,0,0,0,0,0,-6.6279,-6.6275,-6.6228,-6.6386,-6.6413,-6.6412,-6.6498,-6.6441,-6.649,-6.6473,-6.6411,-6.6416,-6.6553,-6.6556,-6.6464,-6.671,-6.6596,-6.6617,-6.6702,-6.6737,-6.6764,-6.6758,-6.6328,0,0,0,0,0,-6.6332,-6.6409,-6.6401,-6.654,-6.6557,-6.6526,-6.6565,-6.6526,-6.6551,-6.6561,-6.6559,-6.6586,-6.665,-6.6695,-6.6754,-6.6922,-6.6921,-6.7002,-6.703,-6.7053,-6.707,-6.7157,-6.7192,-6.6819,-6.6819,-6.6819,0,0,-6.644,-6.6447,-6.65,-6.6572,-6.6588,-6.6667,-6.6536,-6.6627,-6.6684,-6.6575,-6.6693,-6.6694,-6.6718,-6.6866,-6.6931,-6.6873,-6.7174,-6.7074,-6.7092,-6.7097,-6.7177,-6.7212,-6.7244,-6.683,-6.6828,-6.6826,0,0,-6.6677,-6.6693,-6.6808,-6.6828,-6.6855,-6.6834,-6.6862,-6.6871,-6.6867,-6.6986,-6.6904,-6.6973,-6.7087,-6.7107,-6.7133,-6.738,-6.7312,-6.7401,-6.7544,-6.7629,-6.7659,-6.7684,-6.7769,-6.78,-6.742,-6.742,-6.742,0,-6.6807,-6.6925,-6.6875,-6.6971,-6.7004,-6.691,-6.7026,-6.7047,-6.7092,-6.7116,-6.7052,-6.7193,-6.7203,-6.7353,-6.7413,-6.7438,-6.7466,-6.7397,-6.7659,-6.7684,-6.7707,-6.7787,-6.7819,-6.743,-6.7429,-6.7428,-6.7427,0,-6.7083,-6.7166,-6.7257,-6.7303,-6.7346,-6.7452,-6.7416,-6.7467,-6.7425,-6.7411,-6.7532,-6.7542,-6.76,-6.7634,-6.7594,-6.7778,-6.7741,-6.767,-6.7552,-6.7754,-6.7827,-6.7858,-6.7445,-6.7441,-6.7438,-6.7436,0,0,-6.7414,-6.7433,-6.7466,-6.7485,-6.7509,-6.7571,-6.7673,-6.7731,-6.7774,-6.7809,-6.789,-6.799,-6.7923,-6.7953,-6.7915,-6.799,-6.8181,-6.7908,-6.7908,-6.7955,-6.838,-6.8431,-6.8467,-6.8139,-6.8144,-6.8149,-6.8377,0,-6.7645,-6.7818,-6.7777,-6.7948,-6.8023,-6.7936,-6.8024,-6.8047,-6.8037,-6.8098,-6.8087,-6.8157,-6.8066,-6.8082,-6.8154,-6.8143,-6.8265,-6.8126,-6.821,-6.8214,-6.8202,-6.8506,-6.856,-6.8774,-6.8406,-6.8411,-6.8414,0,-6.7936,-6.7983,-6.8162,-6.8172,-6.8202,-6.8282,-6.8331,-6.8392,-6.8416,-6.8403,-6.8437,-6.8384,-6.8483,-6.8369,-6.8502,-6.8409,-6.8442,-6.8442,-6.8449,-6.8451,-6.8323,-6.8512,-6.8842,-6.8873,-6.846,-6.8456,-6.8453,0,-6.8155,-6.8263,-6.8383,-6.8402,-6.8419,-6.8476,-6.8486,-6.8504,-6.8542,-6.8585,-6.8608,-6.8664,-6.8692,-6.8736,-6.8699,-6.862,-6.8837,-6.872,-6.8826,-6.8827,-6.8872,-6.8868,-6.9207,-6.8901,-6.8901,-6.89,-6.89,0,-6.8414,-6.8525,-6.8481,-6.8554,-6.8677,-6.8628,-6.875,-6.875,-6.8767,-6.8838,-6.8768,-6.8835,-6.8785,-6.8848,-6.882,-6.8933,-6.8948,-6.8938,-6.8928,-6.8942,-6.8942,-6.8958,-6.8941,-6.8909,-6.8907,-6.8905,-6.8904,0,-6.8676,-6.8652,-6.8776,-6.8782,-6.8786,-6.8876,-6.888,-6.8947,-6.8933,-6.9024,-6.9042,-6.9019,-6.909,-6.9059,-6.9134,-6.9115,-6.9259,-6.9232,-6.925,-6.9241,-6.9347,-6.9336,-6.9704,-6.9748,-6.9419,-6.9422,-6.9425,0,-6.8841,-6.8925,-6.894,-6.8983,-6.8997,-6.9068,-6.9105,-6.9062,-6.9104,-6.9139,-6.9202,-6.9267,-6.9315,-6.9433,-6.9422,-6.9478,-6.9449,-6.9574,-6.9457,-6.9467,-6.9446,-6.9439,-6.9446,-6.9596,-6.96,-6.9603,-6.9606,0,-6.9134,-6.9118,-6.9175,-6.923,-6.9278,-6.9318,-6.9352,-6.9391,-6.9349,-6.94,-6.9471,-6.951,-6.9586,-6.965,-6.97,-6.9708,-6.965,-6.9644,-6.967,-6.9682,-6.9688,-6.9682,-6.9309,-6.9634,-6.9631,-6.9629,-6.9628,-6.9627,-6.9349,-6.9419,-6.944,-6.9507,-6.9528,-6.9562,-6.9625,-6.962,-6.9679,-6.9737,-6.9709,-6.9792,-6.9814,-6.9875,-6.9891,-6.9954,-6.9905,-6.9945,-6.9954,-6.9963,-6.9975,-6.9682,-6.9964,-6.9963,-6.9962,-6.9962,-6.9961,0,-6.9635,-6.9645,-6.9707,-6.9757,-6.9809,-6.9753,-6.9788,-6.9834,-6.9908,-6.9935,-6.9985,-7.0067,-7.0129,-7.0125,-7.0182,-7.0233,-7.0208,-7.0249,-7.0242,-7.0245,-7.0018,-6.9987,-7.0269,-7.0269,-7.0269,-7.0269,-7.0269,-7.0269,-6.9789,-6.9903,-6.989,-7.0013,-7.0022,-7.0103,-7.0127,-7.0158,-7.0178,-7.0273,-7.0324,-7.0322,-7.0335,-7.0393,-7.0447,-7.0444,-7.0466,-7.0518,-7.0504,-7.0292,-7.0261,-7.0232,-7.0202,-7.0524,-7.0524,-7.0725,-7.0726,-7.0728]},{"header":{"parameterUnit":"m.s-1","parameterCategory":1,"la1":30.2991,"la2":30.254,"lo1":-89.0895,"lo2":-89.0444,"dy":0.0017,"dx":0.0017,"nx":28,"ny":28,"refTime":"2024-06-16T21:00:00:Z","depth":0,"parameterNumber":3,"parameterNumberName":"V-component_of_WINDS"},"data":[0,0,0,0,0,0,0,0,0,0,0,0,0,0,0,0,0,0,0,0,0,0,0,0,0,0,0,0,0,0,0,0,0,0,0,0,0,0,0,0,0,0,0,0,0,0,0,0,0,0,0,0,0,0,0,0,0,0,1.5311,1.5311,0,1.5272,1.5272,1.5272,1.5169,1.5167,1.5165,1.5163,1.5124,1.5125,1.5126,0,0,0,0,0,0,0,0,0,0,0,0,0,1.53,1.53,1.5311,1.5311,1.531,1.5272,1.5272,1.5271,1.5169,1.5167,1.5164,1.5162,1.5124,1.5125,1.5127,0,0,0,0,0,0,0,0,0,0,0,0,0,1.5287,1.5301,1.5311,1.5255,1.5249,1.5273,1.5272,1.5271,1.517,1.5167,1.5163,1.516,1.5124,1.5125,1.5127,1.5202,0,0,1.5131,1.5132,0,0,0,0,0,0,0,0,1.5288,1.5288,1.5263,1.5259,1.5253,1.5222,1.5254,1.5248,1.5171,1.52,1.5162,1.5159,1.516,1.5158,1.5158,1.52,1.5199,1.5132,1.5133,1.5133,1.5134,0,0,0,0,0,0,0,1.5289,1.5289,1.5296,1.5263,1.5257,1.5232,1.5227,1.5252,1.5199,1.5197,1.519,1.5187,1.5156,1.5157,1.5156,1.5198,1.5132,1.5133,1.5134,1.5134,1.5302,1.5305,0,0,0,0,0,0,1.5298,1.529,1.5297,1.5295,1.5263,1.5235,1.5229,1.5235,1.5198,1.519,1.5189,1.5182,1.5156,1.5155,1.5155,1.5241,1.5133,1.5135,1.5136,1.5299,1.5303,1.5307,0,0,0,0,0,0,1.5298,1.5299,1.5299,1.529,1.5288,1.5239,1.5247,1.5236,1.5237,1.5192,1.5182,1.52,1.5153,1.5153,1.5191,1.5238,1.5135,1.5137,1.5294,1.53,1.5305,1.5414,0,0,0,0,0,0,1.5298,1.53,1.5327,1.5292,1.5289,1.5335,1.5249,1.5238,1.524,1.5229,1.5199,1.5191,1.5151,1.519,1.5193,1.5238,1.5138,1.529,1.5297,1.5303,1.5406,1.5422,1.5437,0,0,0,0,0,1.5298,1.536,1.5329,1.533,1.5322,1.5338,1.5337,1.5288,1.5244,1.5271,1.5243,1.5192,1.5233,1.5194,1.5197,1.5244,1.5287,1.5295,1.5303,1.5399,1.5419,1.5436,0,0,0,0,0,0,1.5402,1.5354,1.5319,1.5371,1.536,1.5321,1.5354,1.5311,1.5312,1.5302,1.5242,1.5237,1.5284,1.5268,1.5226,1.5316,1.5252,1.5261,1.5324,1.5343,1.5358,1.536,1.5139,0,0,0,0,0,1.5431,1.5447,1.5404,1.5454,1.545,1.5404,1.5409,1.5373,1.5358,1.5353,1.5327,1.5316,1.5326,1.5334,1.534,1.5404,1.5396,1.5438,1.5453,1.5466,1.5474,1.5507,1.5525,1.5333,1.5333,1.5333,0,0,1.549,1.5466,1.548,1.5475,1.5461,1.548,1.54,1.5423,1.5437,1.5356,1.5391,1.5373,1.5356,1.5408,1.5429,1.5396,1.5526,1.5476,1.5486,1.5487,1.5517,1.5535,1.5552,1.5338,1.5337,1.5336,0,0,1.5609,1.5592,1.5632,1.5621,1.5602,1.5571,1.5581,1.5549,1.5534,1.5568,1.5508,1.5524,1.5543,1.5534,1.5532,1.565,1.5604,1.5654,1.5733,1.5767,1.5782,1.5795,1.5837,1.5853,1.5663,1.5663,1.5663,0,1.5685,1.5711,1.5658,1.5686,1.5686,1.5614,1.5655,1.5647,1.5632,1.5634,1.5597,1.562,1.5603,1.5652,1.5682,1.5682,1.5692,1.5656,1.5784,1.5796,1.5808,1.5847,1.5864,1.5669,1.5669,1.5668,1.5667,0,1.5806,1.5825,1.586,1.5847,1.5851,1.5885,1.5839,1.585,1.5814,1.5788,1.5825,1.5803,1.5805,1.5814,1.578,1.5859,1.5839,1.5794,1.5728,1.5833,1.5869,1.5884,1.5678,1.5676,1.5674,1.5673,0,0,1.5986,1.5945,1.5959,1.5953,1.5928,1.5942,1.5974,1.5976,1.5986,1.5979,1.6005,1.6023,1.5982,1.598,1.5944,1.5974,1.6069,1.5925,1.5923,1.5952,1.6156,1.619,1.6208,1.6039,1.6042,1.6044,1.6157,0,1.6097,1.6148,1.6103,1.6163,1.6181,1.6115,1.6143,1.6131,1.6108,1.612,1.6095,1.6109,1.6053,1.6052,1.6078,1.6052,1.6109,1.6043,1.6063,1.6064,1.6068,1.6227,1.6262,1.637,1.6171,1.6174,1.6175,0,1.6233,1.6232,1.6294,1.6267,1.6272,1.6298,1.6297,1.6309,1.6296,1.6277,1.6276,1.6233,1.6264,1.6201,1.6242,1.6199,1.6204,1.6193,1.6196,1.6195,1.6125,1.623,1.6403,1.6419,1.6197,1.6195,1.6194,0,1.6358,1.6373,1.6411,1.6408,1.6378,1.6398,1.6386,1.6369,1.6374,1.6373,1.6376,1.638,1.6381,1.6386,1.6345,1.6303,1.6393,1.6326,1.6378,1.6379,1.6398,1.6398,1.6575,1.6404,1.6404,1.6404,1.6403,0,1.6486,1.6526,1.6467,1.6491,1.6535,1.6485,1.653,1.6511,1.6498,1.6517,1.6461,1.6482,1.6427,1.6442,1.6411,1.6451,1.6452,1.6438,1.6429,1.6443,1.6445,1.6445,1.6436,1.6408,1.6407,1.6406,1.6405,0,1.6632,1.6594,1.6632,1.6601,1.6594,1.6628,1.6601,1.6622,1.6597,1.6623,1.6626,1.6586,1.6601,1.6561,1.657,1.6549,1.6607,1.6586,1.6611,1.6604,1.6659,1.6654,1.6841,1.6863,1.668,1.6682,1.6683,0,1.6715,1.6745,1.6717,1.6727,1.6718,1.6734,1.6738,1.6691,1.6698,1.6686,1.671,1.672,1.6725,1.6753,1.6725,1.6732,1.671,1.6776,1.6711,1.6724,1.6711,1.6709,1.6712,1.6789,1.6791,1.6793,1.6794,0,1.6868,1.6848,1.6857,1.686,1.6867,1.6867,1.6863,1.6874,1.6824,1.6835,1.685,1.6854,1.6864,1.6875,1.6876,1.6865,1.6822,1.6815,1.6827,1.6841,1.6854,1.6848,1.6647,1.6811,1.6809,1.6808,1.6807,1.6806,1.6984,1.7008,1.6993,1.7005,1.6997,1.6996,1.7015,1.6992,1.7003,1.7007,1.6979,1.7,1.6988,1.6985,1.6978,1.6995,1.6965,1.6983,1.6987,1.6992,1.7001,1.6853,1.6995,1.6994,1.6994,1.6993,1.6993,0,1.7134,1.7121,1.7133,1.713,1.714,1.7099,1.7093,1.7104,1.7124,1.7116,1.7123,1.7141,1.7152,1.7126,1.7133,1.7152,1.7132,1.7155,1.7153,1.7151,1.7027,1.7016,1.7171,1.7171,1.7171,1.7171,1.7171,1.7171,1.7212,1.7251,1.723,1.7265,1.7252,1.7272,1.7272,1.7271,1.7264,1.7287,1.7296,1.7279,1.7264,1.7271,1.728,1.7272,1.7277,1.7307,1.7293,1.7177,1.716,1.7143,1.7132,1.7309,1.7309,1.7415,1.7416,1.7416]}]]